[keps] orb12145.2l.amsat

Ray Hoad ray.hoad at mypbmail.com
Thu May 24 19:06:31 PDT 2012


SB KEPS @ AMSAT  $ORB12145.N
2Line Orbital Elements 12145.AMSAT

HR AMSAT ORBITAL ELEMENTS FOR AMATEUR SATELLITES IN NASA FORMAT
FROM WA5QGD FORT WORTH,TX May 24, 2012
Send SUBSCRIBE KEPS/UNSUBSCRIBE KEPS to majordomo at amsat.org only
BID: ORB12145.N

DECODE 2-LINE ELSETS WITH THE FOLLOWING KEY:
1 AAAAAU 00  0  0 BBBBB.BBBBBBBB  .CCCCCCCC  00000-0  00000-0 0  DDDZ
2 AAAAA EEE.EEEE FFF.FFFF GGGGGGG HHH.HHHH III.IIII JJ.JJJJJJJJKKKKKZ
KEY: A-CATALOGNUM B-EPOCHTIME C-DECAY D-ELSETNUM E-INCLINATION F-RAAN
G-ECCENTRICITY H-ARGPERIGEE I-MNANOM J-MNMOTION K-ORBITNUM Z-CHECKSUM

TO ALL RADIO AMATEURS BT

AO-07
1 07530U 74089B   12145.60270216 -.00000027  00000-0  10000-3 0  3875
2 07530 101.4013 143.7249 0011918 330.2111 029.8287 12.53589457717097
FO-29
1 24278U 96046B   12144.93050638  .00000008  00000-0  41451-4 0 08608
2 24278 098.5853 248.7609 0351346 092.1414 271.9992 13.52983633778679
SO-33
1 25509U 98061B   12144.32491737  .00000720  00000-0  13157-3 0  2388
2 25509 031.4326 114.3795 0352417 345.6877 013.3969 14.28745313709098
RS-22
1 27939U 03042A   12145.69134226  .00000646  00000-0  13171-3 0  3845
2 27939 097.8134 347.7119 0013146 344.9974 015.0836 14.64017415462447
VO-52
1 28650U 05017B   12144.76419574  .00001002  00000-0  12900-3 0 01102
2 28650 097.5979 176.9113 0027624 119.8052 240.5914 14.82918727381358
HO-68
1 36122U 09072B   12145.80519324 -.00000044  00000-0  00000 0 0  4912
2 36122 100.3629 205.6214 0007518 159.9755 200.1654 13.16295643117310
UO-11
1 14781U 84021B   12144.85672526  .00000601  00000-0  85506-4 0 08814
2 14781 097.9557 204.5876 0010062 109.6820 250.5480 14.80433776516337
AO-16
1 20439U 90005D   12144.84258453  .00000138  00000-0  67244-4 0 04885
2 20439 098.4278 088.9008 0010010 229.1109 130.9206 14.32051388166512
LO-19
1 20442U 90005G   12144.86927996  .00000116  00000-0  58634-4 0  3985
2 20442 098.3951 092.0184 0010999 220.2175 139.8189 14.32269977166709
AO-27
1 22825U 93061C   12144.88719701  .00000130  00000-0  67890-4 0 01249
2 22825 098.5728 088.0821 0008484 357.6852 002.4284 14.29458408973001
IO-26
1 22826U 93061D   12144.96271068  .00000109  00000-0  59276-4 0 08600
2 22826 098.5682 088.5332 0008907 351.1556 008.9469 14.29732031973141
GO-32
1 25397U 98043D   12145.63603584  .00000077  00000-0  52332-4 0  7821
2 25397 098.3606 125.5067 0001579 032.7883 327.3405 14.23275170720677
NO-44
1 26931U 01043C   12144.55833260  .00000152  00000-0  91053-4 0 00488
2 26931 067.0506 183.8165 0007671 268.3505 091.6735 14.29795967555723
SO-50
1 27607U 02058C   12144.71845408  .00000402  00000-0  81776-4 0 07690
2 27607 064.5590 009.3332 0083709 253.4513 105.7346 14.72365907506363
CO-55
1 27844U 03031E   12144.55932337  .00000271  00000-0  14511-3 0 03800
2 27844 098.7024 153.2957 0009142 298.4486 061.5791 14.21017019461394
CO-57
1 27848U 03031J   12144.55866976  .00000226  00000-0  12476-3 0  3302
2 27848 098.7096 152.6171 0009135 305.2981 054.7357 14.20769215461334
AO-51
1 28375U 04025K   12144.77656846  .00000152  00000-0  58031-4 0  2720
2 28375 098.1455 111.1919 0084274 114.3087 246.6931 14.40941251415250
CP3
1 31129U 07012N   12145.60090934  .00000536  00000-0  13167-3 0  1728
2 31129 097.8769 154.7627 0100866 195.8413 163.9624 14.53047488270552
CO-65
1 32785U 08021C   12144.81905435  .00001792  00000-0  22686-3 0 03195
2 32785 097.8004 206.4446 0015304 138.0642 222.1728 14.82936570220157
PRISM
1 33493U 09002B   12145.72629964  .00002990  00000-0  36668-3 0  7238
2 33493 098.1676 285.7365 0019128 017.4114 342.7757 14.83791062180270
SOHLA-1
1 33496U 09002E   12144.87185370  .00000422  00000-0  78738-4 0 07473
2 33496 098.1025 256.7717 0007536 114.6717 245.5272 14.69956737178678
SO-67
1 35870U 09049F   12145.87305713  .00004794  00000-0  20287-3 0  9842
2 35870 097.2336 182.4396 0000485 203.0007 278.4975 15.23643833149067
TISAT-1
1 36799U 10035E   12145.77600591  .00001998  00000-0  25911-3 0    24
2 36799 098.0629 221.9389 0013566 246.5747 113.4045 14.81881795101024
STUDSAT
1 36801U 10035G   12144.80164906  .00005352  00000-0  64727-3 0  4004
2 36801 098.0699 221.5647 0011795 235.4740 124.5361 14.84082812100906
FO-69
1 37227U 0        12144.25127398  .00000150  00000-0  29155-4 0 01893
2 37227 071.9720 006.9858 0015333 001.4312 358.6880 14.77054072032416
FO-70
1 37380U 0        12144.25263987  .00001465  00000-0  21598-3 0 01913
2 37380 071.9717 007.5118 0018776 358.4415 001.6742 14.76813663032309
ALMASAT-1
1 38078U 12006B   12145.75921682  .00013599  00000-0  37661-3 0  2387
2 38078 069.4968 010.3071 0762356 277.9028 073.6348 14.08641625 14256
XATCOBEO
1 38082U 12006F   12145.86846059  .00031266  00000-0  76976-3 0  2628
2 38082 069.4917 008.7654 0743934 277.0998 074.6142 14.14807567 14294
NOAA-10
1 16969U 86073A   12144.97928268  .00000130  00000-0  70548-4 0 09417
2 16969 098.5846 174.4610 0011659 309.3090 050.7056 14.27551967336419
NOAA-11
1 19531U 88089A   12144.74890605 -.00000195  00000-0 -78196-4 0 09311
2 19531 098.7326 230.4201 0010581 297.2215 062.7876 14.14966504221057
NOAA-12
1 21263U 91032A   12144.97198193  .00000079  00000-0  52268-4 0 04389
2 21263 098.7306 166.7500 0012883 272.8886 087.0820 14.25495738093103
MET-3/5
1 21655U 91056A   12144.76328311 -.00000260  00000-0 -70632-3 0  4168
2 21655 082.5548 169.4420 0013745 029.3596 330.8296 13.17041206998678
MET-2/21
1 22782U 93055A   12145.29347306  .00000079  00000-0  58068-4 0  4251
2 22782 082.5505 051.4728 0021457 216.6789 143.2906 13.83684705945865
OKEAN-4
1 23317U 94066A   12144.95680305  .00001041  00000-0  12237-3 0 09342
2 23317 082.5415 053.8578 0023478 072.5211 287.8565 14.83766225951214
NOAA-14
1 23455U 94089A   12144.91587718  .00000080  00000-0  65375-4 0 09142
2 23455 098.8258 228.7181 0010081 033.3117 326.8687 14.13898810897364
NOAA-15
1 25338U 98030A   12144.69339936  .00000300  00000-0  14671-3 0 02720
2 25338 098.6871 131.8332 0010773 174.2805 185.8474 14.25071849729363
RESURS
1 25394U 98043A   12144.95442578  .00000031  00000-0  30967-4 0 00964
2 25394 098.3204 134.4707 0001344 356.1040 004.0125 14.24287633720953
FENGYUN1
1 25730U 99025A   12144.93833419  .00001912  00000-0  11161-2 0 06255
2 25730 098.8447 104.3425 0020564 072.1362 288.2048 14.09530104671199
OKEAN-0
1 25860U 99039A   12145.77616167  .00000527  00000-0  87362-4 0  6356
2 25860 097.9334 108.9016 0001100 042.7613 317.3680 14.74195652691129
NOAA-16
1 26536U 00055A   12144.67408034  .00000398  00000-0  23921-3 0 07567
2 26536 099.0952 186.4148 0011046 148.9579 211.2276 14.12740528601579
NOAA-17
1 27453U 02032A   12144.71848778  .00000069  00000-0  47450-4 0 07144
2 27453 098.3370 172.9890 0010892 225.2264 134.8016 14.24434017515275
NOAA-18
1 28654U 05018A   12144.75453639 -.00000093  00000-0 -26043-4 0 01909
2 28654 099.0449 102.6416 0013516 221.5626 138.4518 14.11650237361114
NOAA-19
1 33591U 09005A   12144.82787889  .00000329  00000-0  20585-3 0 03827
2 33591 098.8633 084.9196 0015061 089.8753 270.4168 14.11338969169571
HUBBLE
1 20580U 90037B   12143.81672536  .00002000  00000-0  13466-3 0    45
2 20580 028.4714 309.5688 0003363 143.9013 216.2393 15.02492313 10915
ISS
1 25544U 98067A   12145.89835000  .00018238  00000-0  25894-3 0  6211
2 25544 051.6404 238.8498 0010979 357.5754 110.1131 15.56418703774383
CO-58
1 28895U 05043F   12145.65446007  .00000865  00000-0  18672-3 0  1829
2 28895 097.9178 012.9589 0017127 221.6722 138.3230 14.60616907350221
FALCON
1 30776U 07006E   12144.94947814  .00004551  00000-0  29708-3 0 03543
2 30776 035.4319 064.8671 0001287 202.2443 157.8225 15.07400200286596
MAST
1 31126U 07012K   12145.55229770  .00000563  00000-0  13590-3 0  4645
2 31126 097.8740 158.0370 0093571 183.6567 176.3940 14.54144023270833
CAPE1
1 31130U 07012P   12144.67303572  .00000599  00000-0  14637-3 0 04782
2 31130 097.8820 153.6040 0100790 199.4938 160.2383 14.52916345270218
COMPASS
1 32787U 08021E   12144.66025615  .00002168  00000-0  26678-3 0 03107
2 32787 097.8013 206.5365 0015785 137.3609 222.8860 14.83916215220179
AAUSAT2
1 32788U 08021F   12144.90483209  .00002325  00000-0  28342-3 0 03028
2 32788 097.8043 207.1439 0015927 136.7284 223.5183 14.84233109220230
DO-64
1 32789U 08021G   12145.64983381  .00004259  00000-0  49628-3 0  3171
2 32789 097.8144 209.8056 0015750 132.3481 227.9100 14.85669889220384
CO-66
1 32791U 08021J   12144.64031200  .00001665  00000-0  20913-3 0 03025
2 32791 097.8019 206.2777 0016514 137.4927 222.7590 14.83348469220101
RS-30
1 32953U 08025A   12145.54588335  .00000010  00000-0  00000 0 0  8057
2 32953 082.4989 309.8408 0018926 002.7982 357.3197 12.43023730181628
TACSAT-3
1 35001U 09028A   12121.72616188  .15204951  73582-5  42606-3 0 00016
2 35001 040.4259 351.8840 0007146 275.2650 085.0693 16.45157000166990
PHARMSAT
1 35002U 09028B   12145.33428465  .00122624  00000-0  63066-3 0  9066
2 35002 040.4587 219.6431 0006527 043.0987 317.0567 15.79976714170549
METEOR-M
1 35865U 09049A   12145.71601448 -.00000005  00000-0  17259-4 0  4374
2 35865 098.6561 200.4795 0003243 110.0903 250.0619 14.21862464139269
RS-38
1 35869U 09049E   12145.67026256  .00000061  00000-0  47078-4 0  4453
2 35869 098.6521 200.4341 0005245 113.7284 246.4440 14.22070906139277
JUGNU
1 37839U 11058B   12144.36707117  .00000619  00000-0  19019-3 0  1541
2 37839 019.9625 148.5937 0018436 312.6511 047.2322 14.12054918 31731
SRMSAT
1 37841U 11058D   12144.38783406  .00000264  00000-0  00000 0 0  1554
2 37841 019.9743 152.8731 0011970 276.7691 083.1454 14.10139292 31686
RAX-2
1 37853U 11061D   12145.79562683  .00007447  00000-0  59324-3 0  1859
2 37853 101.7146 175.3312 0247714 057.6799 304.8130 14.79824884 30937
AUBIESAT
1 37854U 11061E   12145.75627352  .00007659  00000-0  60058-3 0  1863
2 37854 101.7154 175.4928 0248832 057.4149 305.0819 14.80185649 30927
HRBE
1 37855U 11061F   12144.95652156  .00007323  00000-0  57575-3 0 02000
2 37855 101.7183 174.2914 0249391 059.4706 303.0857 14.80041054030802
RS-39
1 38051U 11062C   12145.72500233  .00010209  00000-0  42923-3 0  3621
2 38051 051.6321 271.6125 0011747 314.2541 183.4089 15.23921389 18398
E-STAR
1 38079U 12006C   12145.68107311  .00026585  00000-0  64846-3 0  2479
2 38079 069.4983 009.3477 0750111 277.4780 074.1940 14.13706713 14269
GOLIAT
1 38085U 12006J   12145.01954356  .00023719  00000-0  58543-3 0  2262
2 38085 069.4960 011.0423 0753694 278.3938 073.2853 14.12723987 14169
HORYU-2
1 38340U 12025D   12144.32142747  .00003745  00000-0  63280-3 0 00183
2 38340 098.1772 083.9989 0014654 051.5833 308.6703 14.69926881000815
/EX




More information about the Keps mailing list